• Join FlightAware (Why Join?)
  • Login
  • US Flag 
11:13PM EDT


 

Airport Tracker/Info


-or-


 

Live Flight TrackerFlight Track Log ✈ EJA922 ✈ 16-Aug-2013 ✈ KAPA - KDET

Flight Track Log - Related Links

Times and Time Zones

All times are in EDT time to prevent confusion due to time zone crossing. See the EJA922 flight status page for this flight to view local times or setup timezone preferences in your user account.

Time Position Orientation Groundspeed Altitude Reporting Facility
EDT Latitude Longitude Course Direction KTS MPH feet Rate Location/Type
02:14PM 39.5333 -104.8333 105° East 199 229 7,200  Level Denver TRACON
02:15PM 39.5167 -104.7500 105° East 279 321 9,600 2,580 Climbing Denver TRACON
02:16PM 39.5333 -104.6667 75° East 303 349 12,400 3,360 Climbing Denver TRACON
02:17PM 39.6006 -104.5964 39° Northeast 307 353 16,600 2,760 Climbing Denver Center
02:18PM 39.6617 -104.5042 49° Northeast 345 397 18,200 1,500 Climbing Denver Center
02:19PM 39.7206 -104.3781 59° Northeast 383 441 19,800 1,440 Climbing Denver Center
02:20PM 39.7633 -104.2422 68° East 404 465 21,300 1,320 Climbing Denver Center
02:21PM 39.8094 -104.0911 68° East 418 481 22,600 1,260 Climbing Denver Center
02:22PM 39.8533 -103.9456 69° East 430 495 24,000 1,500 Climbing Denver Center
02:23PM 39.8961 -103.8028 69° East 423 487 25,800 1,500 Climbing Denver Center
02:24PM 39.9406 -103.6589 68° East 426 490 27,200 1,320 Climbing Denver Center
02:25PM 39.9844 -103.5089 69° East 439 505 28,600 1,380 Climbing Denver Center
02:26PM 40.0394 -103.3239 69° East 454 522 30,100 1,320 Climbing Denver Center
02:27PM 40.0858 -103.1669 69° East 461 531 31,400 1,200 Climbing Denver Center
02:28PM 40.1328 -103.0081 69° East 467 537 32,700 1,200 Climbing Denver Center
02:29PM 40.1775 -102.8447 70° East 475 547 34,000 1,260 Climbing Denver Center
02:30PM 40.2267 -102.6653 70° East 486 559 35,400 1,500 Climbing Denver Center
02:31PM 40.2769 -102.4786 71° East 488 562 37,100 1,500 Climbing Denver Center
02:32PM 40.3197 -102.3181 71° East 488 562 38,500 1,260 Climbing Denver Center
02:33PM 40.3642 -102.1603 70° East 485 558 39,800 1,140 Climbing Denver Center
02:34PM 40.4128 -101.9758 71° East 479 551 40,900 540 Climbing Denver Center
02:35PM 40.4558 -101.8178 70° East 481 554 41,000  Climbing Denver Center
02:36PM 40.5061 -101.6297 71° East 487 560 41,000  Level Denver Center
02:37PM 40.5483 -101.4658 71° East 492 566 41,000  Level Denver Center
02:38PM 40.5978 -101.2761 71° East 494 568 41,000  Level Denver Center
02:39PM 40.6397 -101.1131 71° East 493 567 41,000  Level Denver Center
02:40PM 40.6878 -100.9228 72° East 493 567 41,000  Level Denver Center
02:41PM 40.7269 -100.7600 72° East 496 571 41,000  Level Denver Center
02:42PM 40.7781 -100.5706 70° East 504 580 41,000  Level Denver Center
02:44PM 40.8261 -100.3814 71° East 493 567 41,000  Level Denver Center
02:45PM 40.8669 -100.2172 72° East 493 567 41,000  Level Denver Center
02:46PM 40.9142 -100.0267 72° East 491 565 41,000  Level Denver Center
02:47PM 40.9547 -99.8633 72° East 490 564 41,000  Level Denver Center
02:48PM 40.9942 -99.7000 72° East 489 563 41,000  Level Denver Center
02:49PM 41.0442 -99.4936 72° East 490 564 41,000  Level Denver Center
02:50PM 41.0853 -99.3206 72° East 491 565 41,000  Level Denver Center
02:51PM 41.1267 -99.1478 72° East 491 565 41,000  Level Denver Center
02:52PM 41.1647 -98.9850 73° East 491 565 41,000  Level Denver Center
02:53PM 41.2106 -98.7894 73° East 495 570 41,000  Level Denver Center
02:54PM 41.2536 -98.6089 72° East 500 575 41,000  Level Denver Center
02:55PM 41.2933 -98.4339 73° East 494 568 41,000  Level Denver Center
02:56PM 41.3492 -98.1894 73° East 493 567 41,000  Level Minneapolis Center
02:57PM 41.3897 -98.0108 73° East 491 565 41,000  Level Minneapolis Center
02:58PM 41.4292 -97.8358 73° East 493 567 41,000  Level Minneapolis Center
02:59PM 41.4675 -97.6606 74° East 493 567 41,000  Level Minneapolis Center
03:00PM 41.5153 -97.4492 73° East 495 570 41,000  Level Minneapolis Center
03:01PM 41.5550 -97.2717 73° East 497 572 41,000  Level Minneapolis Center
03:03PM 41.5919 -97.0928 75° East 499 574 41,000  Level Minneapolis Center
03:04PM 41.6311 -96.9131 74° East 502 578 41,000  Level Minneapolis Center
03:05PM 41.6706 -96.7333 74° East 503 579 41,000  Level Minneapolis Center
03:06PM 41.7072 -96.5531 75° East 501 577 41,000  Level Minneapolis Center
03:07PM 41.7453 -96.3733 74° East 499 574 41,000  Level Minneapolis Center
03:08PM 41.7906 -96.1567 74° East 499 574 41,000  Level Minneapolis Center
03:09PM 41.8272 -95.9750 75° East 500 575 41,000  Level Minneapolis Center
03:10PM 41.8639 -95.7917 75° East 504 580 41,000  Level Minneapolis Center
03:11PM 41.9006 -95.6103 75° East 502 578 41,000  Level Minneapolis Center
03:12PM 41.9372 -95.4278 75° East 504 580 41,000  Level Minneapolis Center
03:13PM 41.9736 -95.2475 75° East 501 577 41,000  Level Minneapolis Center
03:14PM 42.0083 -95.0656 76° East 502 578 41,000  Level Minneapolis Center
03:15PM 42.0444 -94.8811 75° East 508 585 41,000  Level Minneapolis Center
03:16PM 42.0864 -94.6617 75° East 506 582 41,000  Level Minneapolis Center
03:17PM 42.1214 -94.4775 76° East 507 583 41,000  Level Minneapolis Center
03:18PM 42.1567 -94.2944 75° East 505 581 41,000  Level Minneapolis Center
03:19PM 42.1908 -94.1103 76° East 506 582 41,000  Level Minneapolis Center
03:20PM 42.2294 -93.9067 76° East 507 583 41,000  Level Minneapolis Center
03:21PM 42.2633 -93.7206 76° East 513 590 41,000  Level Minneapolis Center
03:22PM 42.2969 -93.5361 76° East 512 589 41,000  Level Minneapolis Center
03:23PM 42.3294 -93.3511 77° East 512 589 41,000  Level Minneapolis Center
03:24PM 42.3711 -93.1294 76° East 511 588 41,000  Level Minneapolis Center
03:25PM 42.4033 -92.9450 77° East 510 587 41,000  Level Minneapolis Center
03:26PM 42.4367 -92.7589 76° East 511 588 41,000  Level Minneapolis Center
03:27PM 42.4681 -92.5722 77° East 514 592 41,000  Level Minneapolis Center
03:28PM 42.4994 -92.3878 77° East 510 587 41,000  Level Minneapolis Center
03:29PM 42.5369 -92.1656 77° East 510 587 41,000  Level Minneapolis Center
03:30PM 42.5683 -91.9803 77° East 510 587 41,000  Level Minneapolis Center
03:32PM 42.5992 -91.7947 77° East 512 589 41,000  Level Minneapolis Center
03:33PM 42.6283 -91.6111 78° East 513 590 41,000  Level Minneapolis Center
03:34PM 42.6633 -91.3886 78° East 519 597 41,000  Level Minneapolis Center
03:35PM 42.6931 -91.2039 78° East 514 592 41,000  Level Minneapolis Center
03:36PM 42.7222 -91.0161 78° East 514 592 41,000  Level Minneapolis Center
03:37PM 42.7572 -90.7894 78° East 517 595 41,000  Level Minneapolis Center
03:38PM 42.7861 -90.5997 78° East 518 596 41,000  Level Minneapolis Center
03:39PM 42.8142 -90.4083 79° East 520 598 41,000  Level Minneapolis Center
03:40PM 42.8458 -90.2106 78° East 518 596 41,000  Level Minneapolis Center
03:41PM 42.8772 -90.0200 77° East 515 593 41,000  Level Minneapolis Center
03:42PM 42.9169 -89.7314 79° East 514 592 41,000  Level Chicago Center
03:43PM 42.9297 -89.5364 85° East 516 594 41,000  Level Chicago Center
03:44PM 42.9214 -89.3067 93° East 519 597 41,000  Level Chicago Center
03:45PM 42.9169 -89.1094 92° East 520 598 41,000  Level Chicago Center
03:46PM 42.9114 -88.9131 92° East 521 600 41,000 -300 Level Chicago Center
03:47PM 42.9058 -88.7186 92° East 517 595 40,500 -1,020 Descending Chicago Center
03:49PM 42.8994 -88.5253 93° East 514 592 39,000 -1,860 Descending Chicago Center
03:50PM 42.8931 -88.2986 92° East 517 595 36,700 -2,100 Descending Chicago Center
03:51PM 42.8861 -88.1011 93° East 522 601 34,700 -1,740 Descending Chicago Center
03:52PM 42.8794 -87.9017 93° East 526 605 33,200 -840 Descending Chicago Center
03:53PM 42.8714 -87.6981 93° East 534 615 33,000 -120 Descending Chicago Center
03:54PM 42.8619 -87.4550 93° East 550 633 33,000  Level Chicago Center
03:55PM 42.8544 -87.2650 93° East 550 633 33,000  Level Chicago Center
03:56PM 42.8444 -87.0564 94° East 554 638 33,000  Level Chicago Center
03:57PM 42.8367 -86.8478 93° East 554 638 33,000  Level Chicago Center
03:58PM 42.8247 -86.5969 94° East 556 640 33,000 -300 Level Chicago Center
03:59PM 42.8142 -86.3894 94° East 555 639 32,500 -840 Descending Chicago Center
04:00PM 42.8033 -86.1847 94° East 551 634 31,300 -1,560 Descending Chicago Center
04:01PM 42.7922 -85.9806 94° East 552 635 29,300 -2,160 Descending Chicago Center
04:02PM 42.7797 -85.7414 94° East 542 624 26,900 -2,160 Descending Chicago Center
04:03PM 42.7697 -85.5489 94° East 524 603 24,900 -1,980 Descending Chicago Center
04:04PM 42.7592 -85.3619 94° East 506 582 22,900 -1,860 Descending Chicago Center
04:05PM 42.7481 -85.1803 95° East 489 563 21,100 -960 Descending Chicago Center
04:06PM 42.7378 -85.0031 94° East 475 547 21,000 -900 Descending Chicago Center
04:07PM 42.7244 -84.7978 95° East 457 526 19,300 -2,100 Descending Chicago Center
04:08PM 42.7161 -84.6339 94° East 438 504 16,700 -2,640 Descending Chicago Center
04:09PM 42.7150 -84.4739 90° East 426 490 13,900 -2,220 Descending Chicago Center
04:10PM 42.7131 -84.3286 91° East 391 450 12,200 -1,740 Descending Chicago Center
04:11PM 42.7103 -84.2483 93° East 366 421 11,100 -1,680 Descending Cleveland Center
04:12PM 42.7114 -84.1467 89° East 315 362 9,600 -1,620 Descending Cleveland Center
04:13PM 42.7189 -84.0397 85° East 279 321 7,900 -1,320 Descending Cleveland Center
04:14PM 42.7258 -83.9411 84° East 269 310 7,000 -480 Descending Cleveland Center
04:15PM 42.7331 -83.8397 84° East 269 310 7,000  Level Cleveland Center
04:16PM 42.7422 -83.7383 83° East 269 310 7,000  Level Cleveland Center
04:17PM 42.7514 -83.6286 83° East 269 310 7,000 -420 Level Cleveland Center
04:18PM 42.7606 -83.5103 84° East 257 296 6,200 -1,260 Descending Cleveland Center
04:19PM 42.7214 -83.4122 119° Southeast 271 312 4,100 -1,140 Descending Cleveland Center
04:20PM 42.6794 -83.3342 126° Southeast 268 308 4,000 -60 Descending Cleveland Center
04:21PM 42.6378 -83.2503 124° Southeast 267 307 4,000 -240 Level Cleveland Center
04:22PM 42.5747 -83.1772 140° Southeast 261 300 3,500 -480 Descending Cleveland Center
04:23PM 42.5197 -83.1242 145° Southeast 208 239 3,000 -600 Descending Cleveland Center
04:24PM 42.4850 -83.0833 139° Southeast 161 185 2,400 -780 Descending Cleveland Center
04:25PM 42.4544 -83.0569 147° Southeast 127 146 1,600 -840 Descending Cleveland Center
04:26PM 42.4239 -83.0247 142° Southeast 124 143 800 -840 Descending Cleveland Center